timestamp,wind_dir_avg,wind_spd_avg,wind_spd_max_dir,wind_spd_gust,battery_voltage,lat,long
2024-03-30 00:04:00+00:00,315.0,0.01,250.0,0.0,12.25,47.59359,-54.27349
2024-03-30 00:14:00+00:00,315.0,0.01,250.0,0.0,12.17,47.59359,-54.27349
2024-03-30 00:24:00+00:00,188.0,3.15,202.0,3.63,12.17,47.59359,-54.27349
2024-03-30 00:34:00+00:00,231.0,7.09,235.0,8.19,12.17,47.59359,-54.27349
2024-03-30 00:44:00+00:00,235.0,7.14,238.0,7.99,12.17,47.59359,-54.27349
2024-03-30 00:54:00+00:00,230.0,7.14,237.0,9.63,12.17,47.59359,-54.27349
2024-03-30 01:04:00+00:00,233.0,6.58,238.0,8.03,12.17,47.59359,-54.27349
2024-03-30 01:14:00+00:00,222.0,5.55,224.0,6.16,12.17,47.59359,-54.27349
2024-03-30 01:24:00+00:00,223.0,5.65,234.0,6.98,12.17,47.59359,-54.27349
2024-03-30 01:34:00+00:00,232.0,5.87,233.0,7.13,12.17,47.59359,-54.27349
2024-03-30 01:44:00+00:00,158.0,2.67,123.0,4.61,12.17,47.59359,-54.27349
2024-03-30 01:54:00+00:00,315.0,0.01,128.0,0.0,12.17,47.59359,-54.27349
2024-03-30 02:04:00+00:00,247.0,4.95,255.0,6.07,12.17,47.59359,-54.27349
2024-03-30 02:14:01+00:00,240.0,6.49,238.0,7.98,12.17,47.59359,-54.27349
2024-03-30 02:24:01+00:00,230.0,5.03,233.0,5.9,12.17,47.59359,-54.27349
2024-03-30 02:34:01+00:00,232.0,7.02,237.0,8.13,12.17,47.59359,-54.27349
2024-03-30 02:44:01+00:00,237.0,5.8,240.0,7.37,12.17,47.59359,-54.27349
2024-03-30 02:54:01+00:00,245.0,6.69,246.0,7.1,12.17,47.59359,-54.27349
2024-03-30 03:04:01+00:00,240.0,4.83,249.0,7.57,12.17,47.59359,-54.27349
2024-03-30 03:14:00+00:00,253.0,5.58,254.0,5.97,12.17,47.59359,-54.27349
2024-03-30 03:24:00+00:00,268.0,5.08,268.0,5.94,12.17,47.59359,-54.27349
2024-03-30 03:34:00+00:00,276.0,5.84,277.0,6.29,12.17,47.59359,-54.27349
2024-03-30 03:44:00+00:00,315.0,0.01,283.0,0.0,12.17,47.59359,-54.27349
2024-03-30 03:54:00+00:00,315.0,0.01,274.0,0.0,12.17,47.59359,-54.27349
2024-03-30 04:04:00+00:00,315.0,0.01,271.0,0.0,12.17,47.59359,-54.27349
2024-03-30 04:14:01+00:00,315.0,0.01,271.0,0.0,12.09,47.59359,-54.27349
2024-03-30 04:24:01+00:00,279.0,5.41,280.0,5.75,12.09,47.59359,-54.27349
2024-03-30 04:34:01+00:00,312.0,0.75,289.0,1.86,12.09,47.59359,-54.27349
2024-03-30 04:44:01+00:00,0.0,0.77,353.0,1.25,12.09,47.59359,-54.27349
2024-03-30 04:54:01+00:00,5.0,2.87,5.0,3.16,12.09,47.59359,-54.27349
2024-03-30 05:04:01+00:00,60.0,5.33,64.0,5.7,12.09,47.59359,-54.27349
2024-03-30 05:14:00+00:00,66.0,5.0,74.0,5.79,12.09,47.59359,-54.27349
2024-03-30 05:24:00+00:00,44.0,3.96,56.0,5.53,12.09,47.59359,-54.27349
2024-03-30 05:34:00+00:00,19.0,3.86,49.0,5.97,12.09,47.59359,-54.27349
2024-03-30 05:44:00+00:00,359.0,4.49,0.0,5.09,12.09,47.59359,-54.27349
2024-03-30 05:54:00+00:00,317.0,4.07,298.0,5.86,12.09,47.59359,-54.27349
2024-03-30 06:04:00+00:00,302.0,2.97,302.0,4.77,12.09,47.59359,-54.27349
2024-03-30 06:14:00+00:00,278.0,2.26,298.0,2.74,12.09,47.59359,-54.27349
2024-03-30 06:24:00+00:00,239.0,2.13,222.0,2.82,12.09,47.59359,-54.27349
2024-03-30 06:34:00+00:00,315.0,0.01,314.0,0.0,12.09,47.59359,-54.27349
2024-03-30 06:44:00+00:00,315.0,0.01,342.0,0.0,12.09,47.59359,-54.27349
2024-03-30 06:54:00+00:00,305.0,0.94,4.0,3.07,12.09,47.59359,-54.27349
2024-03-30 07:04:00+00:00,300.0,2.57,308.0,3.24,12.09,47.59359,-54.27349
2024-03-30 07:14:00+00:00,279.0,4.9,291.0,6.37,12.09,47.59359,-54.27349
2024-03-30 07:24:00+00:00,299.0,7.86,291.0,10.49,12.09,47.59359,-54.27349
2024-03-30 07:34:00+00:00,315.0,0.01,204.0,0.0,12.09,47.59359,-54.27349
2024-03-30 07:44:00+00:00,199.0,3.86,196.0,5.05,12.09,47.59359,-54.27349
2024-03-30 07:54:00+00:00,315.0,0.01,212.0,0.0,12.09,47.59359,-54.27349
2024-03-30 08:04:00+00:00,189.0,8.35,188.0,9.47,12.09,47.59359,-54.27349
2024-03-30 08:14:00+00:00,315.0,0.01,191.0,0.0,12.01,47.59359,-54.27349
2024-03-30 08:24:00+00:00,315.0,0.01,270.0,0.0,12.01,47.59359,-54.27349
2024-03-30 08:34:00+00:00,252.0,5.97,255.0,7.38,12.01,47.59359,-54.27349
2024-03-30 08:44:00+00:00,241.0,8.39,250.0,9.38,12.01,47.59359,-54.27349
2024-03-30 08:54:00+00:00,232.0,8.85,238.0,10.39,12.01,47.59359,-54.27349
2024-03-30 09:04:00+00:00,225.0,8.85,227.0,11.14,12.01,47.59359,-54.27349
2024-03-30 09:14:01+00:00,203.0,7.08,211.0,8.33,12.01,47.59359,-54.27349
2024-03-30 09:24:01+00:00,212.0,7.4,223.0,9.2,12.01,47.59359,-54.27349
2024-03-30 09:34:01+00:00,203.0,8.14,195.0,10.89,12.01,47.59359,-54.27349
2024-03-30 09:44:01+00:00,207.0,9.41,211.0,10.31,12.01,47.59359,-54.27349
2024-03-30 09:54:01+00:00,208.0,8.37,199.0,9.45,12.01,47.59359,-54.27349
2024-03-30 10:04:01+00:00,202.0,8.41,207.0,9.62,12.01,47.59359,-54.27349
2024-03-30 10:14:00+00:00,204.0,9.87,206.0,10.64,12.01,47.59359,-54.27349
2024-03-30 10:24:00+00:00,202.0,9.44,203.0,9.92,12.01,47.59359,-54.27349
2024-03-30 10:34:00+00:00,211.0,10.37,212.0,10.38,12.01,47.59359,-54.27349
2024-03-30 10:44:00+00:00,209.0,9.35,214.0,10.66,12.01,47.59359,-54.27349
2024-03-30 10:54:00+00:00,213.0,8.27,210.0,9.45,12.01,47.59359,-54.27349
2024-03-30 11:04:00+00:00,223.0,6.42,231.0,7.47,12.01,47.59359,-54.27349
2024-03-30 11:14:00+00:00,208.0,7.23,205.0,8.06,12.25,47.59359,-54.27349
2024-03-30 11:24:00+00:00,216.0,7.96,218.0,9.26,12.25,47.59359,-54.27349
2024-03-30 11:34:00+00:00,205.0,8.28,206.0,9.2,12.25,47.59359,-54.27349
2024-03-30 11:44:00+00:00,214.0,9.64,210.0,10.75,12.25,47.59359,-54.27349
2024-03-30 11:54:00+00:00,215.0,9.51,216.0,10.34,12.25,47.59359,-54.27349
2024-03-30 12:04:00+00:00,214.0,8.63,215.0,9.36,12.25,47.59359,-54.27349
2024-03-30 12:14:00+00:00,218.0,7.15,218.0,8.29,12.41,47.59359,-54.27349
2024-03-30 12:24:00+00:00,207.0,7.07,206.0,7.94,12.41,47.59359,-54.27349
2024-03-30 12:34:00+00:00,207.0,5.94,204.0,6.53,12.41,47.59359,-54.27349
2024-03-30 12:44:00+00:00,211.0,8.36,224.0,10.51,12.41,47.59359,-54.27349
2024-03-30 12:54:00+00:00,204.0,5.92,204.0,6.53,12.41,47.59359,-54.27349
2024-03-30 13:04:00+00:00,219.0,8.89,231.0,11.34,12.41,47.59359,-54.27349
2024-03-30 13:14:00+00:00,212.0,6.83,209.0,7.43,13.13,47.59359,-54.27349
2024-03-30 13:24:00+00:00,214.0,5.77,214.0,6.29,13.13,47.59359,-54.27349
2024-03-30 13:34:00+00:00,213.0,5.25,215.0,5.95,13.13,47.59359,-54.27349
2024-03-30 13:44:00+00:00,174.0,5.32,209.0,6.34,13.13,47.59359,-54.27349
2024-03-30 13:54:00+00:00,161.0,4.57,164.0,5.3,13.13,47.59359,-54.27349
2024-03-30 14:04:00+00:00,157.0,4.47,150.0,5.05,13.13,47.59359,-54.27349
2024-03-30 14:14:00+00:00,194.0,6.07,207.0,7.32,13.21,47.59359,-54.27349
2024-03-30 14:24:00+00:00,206.0,7.98,218.0,9.68,13.21,47.59359,-54.27349
2024-03-30 14:34:00+00:00,203.0,8.51,204.0,9.68,13.21,47.59359,-54.27349
2024-03-30 14:44:00+00:00,216.0,6.32,230.0,8.79,13.21,47.59359,-54.27349
2024-03-30 14:54:00+00:00,187.0,6.54,185.0,8.35,13.21,47.59359,-54.27349
2024-03-30 15:04:00+00:00,214.0,7.52,210.0,8.56,13.21,47.59359,-54.27349
2024-03-30 15:14:00+00:00,214.0,6.56,211.0,7.81,13.37,47.59359,-54.27349
2024-03-30 15:24:00+00:00,219.0,8.45,235.0,11.05,13.37,47.59359,-54.27349
2024-03-30 15:34:00+00:00,225.0,11.71,218.0,13.39,13.37,47.59359,-54.27349
2024-03-30 15:44:00+00:00,223.0,11.46,226.0,12.57,13.37,47.59359,-54.27349
2024-03-30 15:54:00+00:00,214.0,9.65,226.0,12.26,13.37,47.59359,-54.27349
2024-03-30 16:04:00+00:00,228.0,10.78,231.0,12.05,13.37,47.59359,-54.27349
2024-03-30 16:14:01+00:00,208.0,7.73,213.0,9.07,13.53,47.59359,-54.27349
2024-03-30 16:24:01+00:00,207.0,7.41,206.0,8.25,13.53,47.59359,-54.27349
2024-03-30 16:34:01+00:00,210.0,8.4,227.0,11.32,13.53,47.59359,-54.27349
2024-03-30 16:44:01+00:00,207.0,8.31,221.0,10.19,13.53,47.59359,-54.27349
2024-03-30 16:54:01+00:00,207.0,8.86,224.0,11.07,13.53,47.59359,-54.27349
2024-03-30 17:04:01+00:00,224.0,11.63,228.0,13.18,13.53,47.59359,-54.27349
2024-03-30 17:14:01+00:00,214.0,8.58,229.0,11.31,13.53,47.59359,-54.27349
2024-03-30 17:24:01+00:00,224.0,7.77,237.0,11.23,13.53,47.59359,-54.27349
2024-03-30 17:34:01+00:00,208.0,6.68,211.0,7.66,13.53,47.59359,-54.27349
2024-03-30 17:44:01+00:00,196.0,6.21,208.0,7.36,13.53,47.59359,-54.27349
2024-03-30 17:54:01+00:00,200.0,7.16,207.0,8.17,13.53,47.59359,-54.27349
2024-03-30 18:04:01+00:00,201.0,7.84,205.0,8.97,13.53,47.59359,-54.27349
2024-03-30 18:14:00+00:00,207.0,8.93,223.0,11.32,13.53,47.59359,-54.27349
2024-03-30 18:24:00+00:00,212.0,9.65,224.0,11.91,13.53,47.59359,-54.27349
2024-03-30 18:34:00+00:00,220.0,9.45,231.0,12.56,13.53,47.59359,-54.27349
2024-03-30 18:44:00+00:00,226.0,10.41,231.0,12.46,13.53,47.59359,-54.27349
2024-03-30 18:54:00+00:00,212.0,8.94,224.0,11.98,13.53,47.59359,-54.27349
2024-03-30 19:04:00+00:00,208.0,9.22,227.0,11.17,13.53,47.59359,-54.27349
2024-03-30 19:14:00+00:00,215.0,9.74,225.0,12.17,13.53,47.59359,-54.27349
2024-03-30 19:24:00+00:00,212.0,9.05,226.0,11.6,13.53,47.59359,-54.27349
2024-03-30 19:34:00+00:00,204.0,8.25,205.0,9.1,13.53,47.59359,-54.27349
2024-03-30 19:44:00+00:00,204.0,7.78,203.0,8.76,13.53,47.59359,-54.27349
2024-03-30 19:54:00+00:00,208.0,8.04,226.0,10.34,13.53,47.59359,-54.27349
2024-03-30 20:04:00+00:00,208.0,7.59,225.0,9.92,13.53,47.59359,-54.27349
2024-03-30 20:14:00+00:00,205.0,8.77,214.0,10.29,13.53,47.59359,-54.27349
2024-03-30 20:24:00+00:00,217.0,9.35,225.0,11.56,13.53,47.59359,-54.27349
2024-03-30 20:34:00+00:00,206.0,8.77,225.0,10.97,13.53,47.59359,-54.27349
2024-03-30 20:44:00+00:00,212.0,9.34,224.0,11.93,13.53,47.59359,-54.27349
2024-03-30 20:54:00+00:00,218.0,9.58,229.0,12.05,13.53,47.59359,-54.27349
2024-03-30 21:04:00+00:00,216.0,9.67,229.0,11.93,13.53,47.59359,-54.27349
2024-03-30 21:14:00+00:00,212.0,8.06,230.0,10.99,13.29,47.59359,-54.27349
2024-03-30 21:24:00+00:00,211.0,8.27,227.0,10.53,13.29,47.59359,-54.27349
2024-03-30 21:34:00+00:00,208.0,7.51,206.0,8.28,13.29,47.59359,-54.27349
2024-03-30 21:44:00+00:00,213.0,8.19,230.0,11.07,13.29,47.59359,-54.27349
2024-03-30 21:54:00+00:00,207.0,8.25,214.0,9.06,13.29,47.59359,-54.27349
2024-03-30 22:04:00+00:00,216.0,8.89,230.0,11.57,13.29,47.59359,-54.27349
2024-03-30 22:14:00+00:00,209.0,7.82,207.0,8.67,12.73,47.59359,-54.27349
2024-03-30 22:24:00+00:00,224.0,10.92,225.0,12.87,12.73,47.59359,-54.27349
2024-03-30 22:34:00+00:00,226.0,10.16,232.0,12.12,12.73,47.59359,-54.27349
2024-03-30 22:44:00+00:00,217.0,6.25,231.0,8.16,12.73,47.59359,-54.27349
2024-03-30 22:54:00+00:00,221.0,8.48,232.0,11.06,12.73,47.59359,-54.27349
2024-03-30 23:04:00+00:00,218.0,6.08,215.0,6.85,12.73,47.59359,-54.27349
2024-03-30 23:14:01+00:00,211.0,6.93,209.0,7.66,12.25,47.59359,-54.27349
2024-03-30 23:24:01+00:00,211.0,7.31,219.0,8.28,12.25,47.59359,-54.27349
2024-03-30 23:34:01+00:00,217.0,8.03,237.0,10.3,12.25,47.59359,-54.27349
2024-03-30 23:44:01+00:00,221.0,8.62,231.0,11.52,12.25,47.59359,-54.27349
2024-03-30 23:54:01+00:00,209.0,7.28,208.0,8.09,12.25,47.59359,-54.27349
